Time,TemperatureF,DewpointF,PressureIn,WindDirection,WindDirectionDegrees,WindSpeedMPH,WindSpeedGustMPH,Humidity,HourlyPrecipIn,Conditions,Clouds,dailyrainin,SoftwareType,DateUTC
2013-01-29 00:03:00,79.7,75.8,29.98,NE,56,15.0,15.0,88,0.00,CLR,,0.00,WeatherDisplay:10.37,2013-01-29 06:03:00,
2013-01-29 00:08:00,79.7,75.5,29.98,ENE,75,18.4,18.4,87,0.00,CLR,,0.00,WeatherDisplay:10.37,2013-01-29 06:08:00,
2013-01-29 00:13:00,79.7,75.5,29.98,East,84,13.8,13.8,87,0.00,CLR,,0.00,WeatherDisplay:10.37,2013-01-29 06:13:00,
2013-01-29 00:18:00,79.7,75.5,29.98,ENE,73,13.8,13.8,87,0.00,CLR,,0.00,WeatherDisplay:10.37,2013-01-29 06:18:00,
2013-01-29 00:23:00,79.7,75.5,29.98,ENE,60,16.1,16.1,87,0.00,CLR,,0.00,WeatherDisplay:10.37,2013-01-29 06:23:00,
2013-01-29 00:28:00,79.7,75.5,29.98,ENE,75,11.5,11.5,87,0.00,CLR,,0.00,WeatherDisplay:10.37,2013-01-29 06:28:00,
2013-01-29 00:33:00,79.6,75.4,29.98,NE,54,12.7,12.7,87,0.00,CLR,,0.00,WeatherDisplay:10.37,2013-01-29 06:33:00,
2013-01-29 00:38:00,79.6,75.4,29.98,ENE,67,13.8,13.8,87,0.00,CLR,,0.00,WeatherDisplay:10.37,2013-01-29 06:38:00,
2013-01-29 00:43:00,79.6,75.7,29.98,NNE,27,9.2,9.2,88,0.00,CLR,,0.00,WeatherDisplay:10.37,2013-01-29 06:43:00,
2013-01-29 00:48:00,79.4,75.5,29.98,ENE,67,16.1,16.1,88,0.00,CLR,,0.00,WeatherDisplay:10.37,2013-01-29 06:48:00,
2013-01-29 00:53:00,79.4,75.5,29.97,East,84,11.5,11.5,88,0.00,CLR,,0.00,WeatherDisplay:10.37,2013-01-29 06:53:00,
2013-01-29 00:59:00,79.4,75.5,29.97,NNE,26,18.4,18.4,88,0.00,CLR,,0.00,WeatherDisplay:10.37,2013-01-29 06:59:00,
2013-01-29 01:04:00,79.4,75.5,29.97,ESE,121,12.7,12.7,88,0.00,CLR,,0.00,WeatherDisplay:10.37,2013-01-29 07:04:00,
2013-01-29 01:09:00,79.3,75.1,29.97,East,79,13.8,13.8,87,0.00,CLR,,0.00,WeatherDisplay:10.37,2013-01-29 07:09:00,
2013-01-29 01:14:00,79.3,75.4,29.97,ENE,58,13.8,13.8,88,0.00,CLR,,0.00,WeatherDisplay:10.37,2013-01-29 07:14:00,
2013-01-29 01:19:00,79.3,75.4,29.97,ENE,71,15.0,15.0,88,0.00,CLR,,0.00,WeatherDisplay:10.37,2013-01-29 07:19:00,
2013-01-29 01:24:00,79.3,75.4,29.97,ENE,67,20.0,20.0,88,0.00,CLR,,0.00,WeatherDisplay:10.37,2013-01-29 07:24:00,
2013-01-29 01:29:00,79.3,75.4,29.97,NNE,15,9.2,9.2,88,0.00,CLR,,0.00,WeatherDisplay:10.37,2013-01-29 07:29:00,
2013-01-29 01:34:00,79.2,75.0,29.97,ENE,70,16.1,16.1,87,0.00,CLR,,0.00,WeatherDisplay:10.37,2013-01-29 07:34:00,
2013-01-29 01:39:00,79.2,75.3,29.97,ENE,63,13.8,13.8,88,0.00,CLR,,0.00,WeatherDisplay:10.37,2013-01-29 07:39:00,
2013-01-29 01:44:00,79.2,75.7,29.97,NE,41,10.4,10.4,89,0.00,CLR,,0.00,WeatherDisplay:10.37,2013-01-29 07:44:00,
2013-01-29 01:49:00,79.2,75.3,29.97,ENE,65,15.0,15.0,88,0.00,CLR,,0.00,WeatherDisplay:10.37,2013-01-29 07:49:00,
2013-01-29 01:54:00,79.1,75.2,29.96,ENE,68,13.8,13.8,88,0.00,CLR,,0.00,WeatherDisplay:10.37,2013-01-29 07:54:00,
2013-01-29 01:59:00,79.2,75.3,29.96,ENE,72,15.0,15.0,88,0.00,CLR,,0.00,WeatherDisplay:10.37,2013-01-29 07:59:00,
2013-01-29 02:04:00,79.1,75.2,29.96,East,85,13.8,13.8,88,0.00,CLR,,0.00,WeatherDisplay:10.37,2013-01-29 08:04:00,
2013-01-29 02:09:00,79.2,75.0,29.96,ENE,72,15.0,15.0,87,0.00,CLR,,0.00,WeatherDisplay:10.37,2013-01-29 08:09:00,
2013-01-29 02:14:00,79.2,74.6,29.96,NE,49,15.0,15.0,86,0.00,CLR,,0.00,WeatherDisplay:10.37,2013-01-29 08:14:00,
2013-01-29 02:19:00,79.2,75.0,29.95,East,84,18.4,18.4,87,0.00,CLR,,0.00,WeatherDisplay:10.37,2013-01-29 08:19:00,
2013-01-29 02:24:00,79.2,74.6,29.96,East,83,17.3,17.3,86,0.00,CLR,,0.00,WeatherDisplay:10.37,2013-01-29 08:24:00,
2013-01-29 02:29:00,79.2,74.3,29.95,ENE,57,13.8,13.8,85,0.00,CLR,,0.00,WeatherDisplay:10.37,2013-01-29 08:29:00,
2013-01-29 02:34:00,79.3,74.4,29.95,NE,51,11.5,11.5,85,0.00,CLR,,0.00,WeatherDisplay:10.37,2013-01-29 08:34:00,
2013-01-29 02:39:00,79.2,74.6,29.95,ENE,68,15.0,15.0,86,0.00,CLR,,0.00,WeatherDisplay:10.37,2013-01-29 08:39:00,
2013-01-29 02:44:00,79.2,74.6,29.95,East,86,13.8,13.8,86,0.00,CLR,,0.00,WeatherDisplay:10.37,2013-01-29 08:44:00,
2013-01-29 02:49:00,79.2,74.6,29.95,East,96,11.5,11.5,86,0.00,CLR,,0.00,WeatherDisplay:10.37,2013-01-29 08:49:00,
2013-01-29 02:54:00,79.2,74.3,29.95,East,79,12.7,12.7,85,0.00,CLR,,0.00,WeatherDisplay:10.37,2013-01-29 08:54:00,
2013-01-29 02:59:00,79.2,74.6,29.95,ENE,75,10.0,10.0,86,0.00,CLR,,0.00,WeatherDisplay:10.37,2013-01-29 08:59:00,
2013-01-29 03:04:00,79.2,73.9,29.95,SE,143,11.5,11.5,84,0.00,CLR,,0.00,WeatherDisplay:10.37,2013-01-29 09:04:00,
2013-01-29 03:09:00,79.2,74.3,29.95,ENE,76,13.8,13.8,85,0.00,CLR,,0.00,WeatherDisplay:10.37,2013-01-29 09:09:00,
2013-01-29 03:14:00,79.2,74.6,29.95,ENE,57,11.0,11.0,86,0.00,CLR,,0.00,WeatherDisplay:10.37,2013-01-29 09:14:00,
2013-01-29 03:19:00,79.1,74.5,29.95,NNE,25,13.8,13.8,86,0.00,CLR,,0.00,WeatherDisplay:10.37,2013-01-29 09:19:00,
2013-01-29 03:24:00,79.1,74.2,29.95,ENE,70,15.0,15.0,85,0.00,CLR,,0.00,WeatherDisplay:10.37,2013-01-29 09:24:00,
2013-01-29 03:29:00,79.1,74.2,29.95,NE,40,14.0,14.0,85,0.00,CLR,,0.00,WeatherDisplay:10.37,2013-01-29 09:29:00,
2013-01-29 03:34:00,79.1,73.8,29.95,North,8,12.7,12.7,84,0.00,CLR,,0.00,WeatherDisplay:10.37,2013-01-29 09:34:00,
2013-01-29 03:39:00,79.2,73.9,29.95,ENE,72,11.5,11.5,84,0.00,CLR,,0.00,WeatherDisplay:10.37,2013-01-29 09:39:00,
2013-01-29 03:44:00,79.2,73.9,29.95,ENE,62,12.7,12.7,84,0.00,CLR,,0.00,WeatherDisplay:10.37,2013-01-29 09:44:00,
2013-01-29 03:49:00,79.2,73.6,29.95,ESE,122,12.7,12.7,83,0.00,CLR,,0.00,WeatherDisplay:10.37,2013-01-29 09:49:00,
2013-01-29 03:54:00,79.2,73.6,29.95,NNW,335,11.5,11.5,83,0.00,CLR,,0.00,WeatherDisplay:10.37,2013-01-29 09:54:00,
2013-01-29 03:59:00,79.2,73.6,29.95,ENE,76,11.5,11.5,83,0.00,CLR,,0.00,WeatherDisplay:10.37,2013-01-29 09:59:00,
2013-01-29 04:04:00,79.2,73.6,29.95,NE,42,11.5,11.5,83,0.00,CLR,,0.00,WeatherDisplay:10.37,2013-01-29 10:04:00,
2013-01-29 04:09:00,79.2,73.9,29.95,NE,45,13.8,13.8,84,0.00,CLR,,0.00,WeatherDisplay:10.37,2013-01-29 10:09:00,
2013-01-29 04:14:00,79.1,73.8,29.95,ENE,75,11.5,11.5,84,0.00,CLR,,0.00,WeatherDisplay:10.37,2013-01-29 10:14:00,
2013-01-29 04:19:00,79.1,73.8,29.95,NE,49,10.4,10.4,84,0.00,CLR,,0.00,WeatherDisplay:10.37,2013-01-29 10:19:00,
2013-01-29 04:24:00,79.1,73.5,29.95,East,95,10.4,10.4,83,0.00,CLR,,0.00,WeatherDisplay:10.37,2013-01-29 10:24:00,
2013-01-29 04:29:00,79.1,73.5,29.95,ENE,72,13.0,13.0,83,0.00,CLR,,0.00,WeatherDisplay:10.37,2013-01-29 10:29:00,
2013-01-29 04:34:00,79.2,73.6,29.95,ENE,58,15.0,15.0,83,0.00,CLR,,0.00,WeatherDisplay:10.37,2013-01-29 10:34:00,
2013-01-29 04:39:00,79.2,73.9,29.95,East,90,11.5,11.5,84,0.00,CLR,,0.00,WeatherDisplay:10.37,2013-01-29 10:39:00,
2013-01-29 04:44:00,79.1,73.8,29.95,ENE,75,11.0,11.0,84,0.00,CLR,,0.00,WeatherDisplay:10.37,2013-01-29 10:44:00,
2013-01-29 04:49:00,79.1,73.5,29.95,ENE,69,11.5,11.5,83,0.00,CLR,,0.00,WeatherDisplay:10.37,2013-01-29 10:49:00,
2013-01-29 04:54:00,79.1,73.5,29.95,East,81,11.5,11.5,83,0.00,CLR,,0.00,WeatherDisplay:10.37,2013-01-29 10:54:00,
2013-01-29 04:59:00,79.1,73.5,29.95,SE,125,16.1,16.1,83,0.00,CLR,,0.00,WeatherDisplay:10.37,2013-01-29 10:59:00,
2013-01-29 05:04:00,79.1,73.8,29.96,NE,56,6.0,6.0,84,0.00,CLR,,0.00,WeatherDisplay:10.37,2013-01-29 11:04:00,
2013-01-29 05:09:00,79.0,73.7,29.96,NNE,32,11.5,11.5,84,0.00,CLR,,0.00,WeatherDisplay:10.37,2013-01-29 11:09:00,
2013-01-29 05:14:00,78.9,73.7,29.96,NE,35,10.4,10.4,84,0.00,CLR,,0.00,WeatherDisplay:10.37,2013-01-29 11:14:00,
2013-01-29 05:19:00,79.0,73.0,29.96,ENE,75,16.1,16.1,82,0.00,CLR,,0.00,WeatherDisplay:10.37,2013-01-29 11:19:00,
2013-01-29 05:24:00,79.0,73.4,29.97,NE,47,11.5,11.5,83,0.00,CLR,,0.00,WeatherDisplay:10.37,2013-01-29 11:24:00,
2013-01-29 05:29:00,79.0,73.4,29.97,ENE,63,13.0,13.0,83,0.00,CLR,,0.00,WeatherDisplay:10.37,2013-01-29 11:29:00,
2013-01-29 05:34:00,79.0,73.4,29.97,East,101,11.5,11.5,83,0.00,CLR,,0.00,WeatherDisplay:10.37,2013-01-29 11:34:00,
2013-01-29 05:39:00,79.0,73.7,29.97,ENE,74,9.2,9.2,84,0.00,CLR,,0.00,WeatherDisplay:10.37,2013-01-29 11:39:00,
2013-01-29 05:44:00,78.9,73.3,29.97,ENE,69,12.7,12.7,83,0.00,CLR,,0.00,WeatherDisplay:10.37,2013-01-29 11:44:00,
2013-01-29 05:49:00,78.9,73.7,29.97,East,86,12.7,12.7,84,0.00,CLR,,0.00,WeatherDisplay:10.37,2013-01-29 11:49:00,
2013-01-29 05:54:00,78.9,73.7,29.97,East,86,11.5,11.5,84,0.00,CLR,,0.00,WeatherDisplay:10.37,2013-01-29 11:54:00,
2013-01-29 05:59:00,78.9,72.9,29.98,ENE,58,12.7,12.7,82,0.00,CLR,,0.00,WeatherDisplay:10.37,2013-01-29 11:59:00,
2013-01-29 06:04:00,78.9,73.3,29.97,East,79,12.7,12.7,83,0.00,CLR,,0.00,WeatherDisplay:10.37,2013-01-29 12:04:00,
2013-01-29 06:09:00,78.8,73.6,29.98,ENE,60,12.7,12.7,84,0.00,CLR,,0.00,WeatherDisplay:10.37,2013-01-29 12:09:00,
2013-01-29 06:14:00,78.7,72.7,29.98,East,92,12.7,12.7,82,0.00,CLR,,0.00,WeatherDisplay:10.37,2013-01-29 12:14:00,
2013-01-29 06:19:00,78.8,72.8,29.98,NE,35,13.0,13.0,82,0.00,CLR,,0.00,WeatherDisplay:10.37,2013-01-29 12:19:00,
2013-01-29 06:24:00,78.8,73.2,29.98,East,85,13.8,13.8,83,0.00,CLR,,0.00,WeatherDisplay:10.37,2013-01-29 12:24:00,
2013-01-29 06:29:00,78.9,73.3,29.98,ENE,65,15.0,15.0,83,0.00,CLR,,0.00,WeatherDisplay:10.37,2013-01-29 12:29:00,
2013-01-29 06:34:00,78.9,73.7,29.98,NE,44,8.1,8.1,84,0.00,CLR,,0.00,WeatherDisplay:10.37,2013-01-29 12:34:00,
2013-01-29 06:39:00,79.0,73.0,29.99,East,101,11.5,11.5,82,0.00,CLR,,0.00,WeatherDisplay:10.37,2013-01-29 12:39:00,
2013-01-29 06:44:00,79.2,73.2,29.99,ENE,65,15.0,15.0,82,0.00,CLR,,0.00,WeatherDisplay:10.37,2013-01-29 12:44:00,
2013-01-29 06:49:00,79.3,73.7,29.99,East,97,12.7,12.7,83,0.00,CLR,,0.00,WeatherDisplay:10.37,2013-01-29 12:49:00,
2013-01-29 06:54:00,79.5,73.5,29.99,NE,46,13.8,13.8,82,0.00,CLR,,0.00,WeatherDisplay:10.37,2013-01-29 12:54:00,
2013-01-29 06:59:00,79.6,73.3,29.99,ENE,65,15.0,15.0,81,0.00,CLR,,0.00,WeatherDisplay:10.37,2013-01-29 12:59:00,
2013-01-29 07:04:00,79.7,73.0,29.99,ENE,57,19.6,19.6,80,0.00,CLR,,0.00,WeatherDisplay:10.37,2013-01-29 13:04:00,
2013-01-29 07:09:00,79.9,73.5,29.99,ESE,111,10.4,10.4,81,0.00,CLR,,0.00,WeatherDisplay:10.37,2013-01-29 13:09:00,
2013-01-29 07:14:00,79.9,73.2,29.99,ENE,68,14.0,14.0,80,0.00,CLR,,0.00,WeatherDisplay:10.37,2013-01-29 13:14:00,
2013-01-29 07:20:00,80.1,73.4,29.99,SE,131,10.4,10.4,80,0.00,CLR,,0.00,WeatherDisplay:10.37,2013-01-29 13:20:00,
2013-01-29 07:25:00,80.1,72.6,29.99,NE,45,16.1,16.1,78,0.00,CLR,,0.00,WeatherDisplay:10.37,2013-01-29 13:25:00,
2013-01-29 07:30:00,80.3,73.2,29.99,NE,49,12.7,12.7,79,0.00,CLR,,0.00,WeatherDisplay:10.37,2013-01-29 13:30:00,
2013-01-29 07:35:00,80.5,72.6,30.00,NE,52,12.7,12.7,77,0.00,CLR,,0.00,WeatherDisplay:10.37,2013-01-29 13:35:00,
2013-01-29 07:40:00,80.6,73.1,30.00,ESE,102,14.0,14.0,78,0.00,CLR,,0.00,WeatherDisplay:10.37,2013-01-29 13:40:00,
2013-01-29 07:45:00,80.7,72.8,30.00,ENE,75,12.7,12.7,77,0.00,CLR,,0.00,WeatherDisplay:10.37,2013-01-29 13:45:00,
2013-01-29 07:50:00,80.7,72.4,30.00,NE,56,12.7,12.7,76,0.00,CLR,,0.00,WeatherDisplay:10.37,2013-01-29 13:50:00,
2013-01-29 07:55:00,80.8,72.9,30.00,ENE,76,9.0,16.0,77,0.00,CLR,,0.00,WeatherDisplay:10.37,2013-01-29 13:55:00,
2013-01-29 08:00:00,81.1,73.2,30.00,ENE,76,8.0,8.0,77,0.00,CLR,,0.00,WeatherDisplay:10.37,2013-01-29 14:00:00,
2013-01-29 08:05:00,81.0,72.7,30.01,ENE,64,8.0,16.0,76,0.00,CLR,,0.00,WeatherDisplay:10.37,2013-01-29 14:05:00,
2013-01-29 08:10:00,81.1,72.8,30.01,NE,56,11.5,11.5,76,0.00,CLR,,0.00,WeatherDisplay:10.37,2013-01-29 14:10:00,
2013-01-29 08:15:00,81.2,72.5,30.01,ENE,72,16.1,16.1,75,0.00,CLR,,0.00,WeatherDisplay:10.37,2013-01-29 14:15:00,
2013-01-29 08:20:00,81.3,72.2,30.01,ENE,73,10.0,15.0,74,0.00,CLR,,0.00,WeatherDisplay:10.37,2013-01-29 14:20:00,
2013-01-29 08:25:00,81.4,73.1,30.01,East,93,15.0,15.0,76,0.00,CLR,,0.00,WeatherDisplay:10.37,2013-01-29 14:25:00,
2013-01-29 08:30:00,81.4,72.7,30.01,ENE,70,16.1,16.1,75,0.00,CLR,,0.00,WeatherDisplay:10.37,2013-01-29 14:30:00,
2013-01-29 08:35:00,81.4,72.7,30.01,ENE,65,12.0,17.0,75,0.00,CLR,,0.00,WeatherDisplay:10.37,2013-01-29 14:35:00,
2013-01-29 08:40:00,81.5,72.8,30.01,East,84,11.5,11.5,75,0.00,CLR,,0.00,WeatherDisplay:10.37,2013-01-29 14:40:00,
2013-01-29 08:45:00,81.6,72.5,30.01,ENE,75,16.1,16.1,74,0.00,CLR,,0.00,WeatherDisplay:10.37,2013-01-29 14:45:00,
2013-01-29 08:50:00,81.6,72.5,30.01,ENE,67,9.0,17.0,74,0.00,CLR,,0.00,WeatherDisplay:10.37,2013-01-29 14:50:00,
2013-01-29 08:55:00,81.5,72.4,30.01,ENE,69,13.0,20.0,74,0.00,CLR,,0.00,WeatherDisplay:10.37,2013-01-29 14:55:00,
2013-01-29 09:00:00,81.5,73.2,30.01,ENE,68,8.0,16.0,76,0.00,CLR,,0.00,WeatherDisplay:10.37,2013-01-29 15:00:00,
2013-01-29 09:05:00,81.7,73.0,30.00,NE,53,11.5,11.5,75,0.00,CLR,,0.00,WeatherDisplay:10.37,2013-01-29 15:05:00,
2013-01-29 09:10:00,81.8,73.1,30.01,NE,43,12.7,12.7,75,0.00,CLR,,0.00,WeatherDisplay:10.37,2013-01-29 15:10:00,
2013-01-29 09:15:00,81.6,72.5,30.00,ENE,66,10.0,20.0,74,0.00,CLR,,0.00,WeatherDisplay:10.37,2013-01-29 15:15:00,
2013-01-29 09:20:00,81.7,73.0,30.00,ENE,68,11.5,11.5,75,0.00,CLR,,0.00,WeatherDisplay:10.37,2013-01-29 15:20:00,
2013-01-29 09:25:00,81.7,73.0,30.01,ENE,69,9.0,16.0,75,0.00,CLR,,0.00,WeatherDisplay:10.37,2013-01-29 15:25:00,
2013-01-29 09:30:00,81.8,72.7,30.01,ENE,67,9.0,17.0,74,0.00,CLR,,0.00,WeatherDisplay:10.37,2013-01-29 15:30:00,
2013-01-29 09:35:00,81.9,72.8,30.01,ENE,69,10.0,15.0,74,0.00,CLR,,0.00,WeatherDisplay:10.37,2013-01-29 15:35:00,
2013-01-29 09:40:00,82.1,72.6,30.01,ENE,70,13.0,13.0,73,0.00,CLR,,0.00,WeatherDisplay:10.37,2013-01-29 15:40:00,
2013-01-29 09:45:00,82.1,72.6,30.01,ENE,71,9.0,15.0,73,0.00,CLR,,0.00,WeatherDisplay:10.37,2013-01-29 15:45:00,
2013-01-29 09:50:00,82.1,73.0,30.01,ENE,77,7.0,18.0,74,0.00,CLR,,0.00,WeatherDisplay:10.37,2013-01-29 15:50:00,
2013-01-29 09:55:00,82.1,72.6,30.01,ENE,74,10.0,18.0,73,0.00,CLR,,0.00,WeatherDisplay:10.37,2013-01-29 15:55:00,
2013-01-29 10:00:00,82.5,72.1,30.01,NE,36,17.3,17.3,71,0.00,CLR,,0.00,WeatherDisplay:10.37,2013-01-29 16:00:00,
2013-01-29 10:05:00,82.7,73.2,30.01,NE,40,11.5,11.5,73,0.00,CLR,,0.00,WeatherDisplay:10.37,2013-01-29 16:05:00,
2013-01-29 10:10:00,83.0,72.2,30.01,NE,49,13.8,13.8,70,0.00,CLR,,0.00,WeatherDisplay:10.37,2013-01-29 16:10:00,
2013-01-29 10:15:00,83.0,71.8,30.01,ENE,68,9.0,16.0,69,0.00,CLR,,0.00,WeatherDisplay:10.37,2013-01-29 16:15:00,
2013-01-29 10:20:00,83.0,71.8,30.00,ENE,73,10.0,15.0,69,0.00,CLR,,0.00,WeatherDisplay:10.37,2013-01-29 16:20:00,
2013-01-29 10:25:00,83.0,71.8,30.00,ENE,71,9.0,14.0,69,0.00,CLR,,0.00,WeatherDisplay:10.37,2013-01-29 16:25:00,
2013-01-29 10:30:00,83.1,72.3,30.00,ENE,69,10.0,18.0,70,0.00,CLR,,0.00,WeatherDisplay:10.37,2013-01-29 16:30:00,
2013-01-29 10:35:00,83.2,72.8,30.00,NE,49,12.7,12.7,71,0.00,CLR,,0.00,WeatherDisplay:10.37,2013-01-29 16:35:00,
2013-01-29 10:40:00,82.9,73.4,29.99,ENE,64,7.0,14.0,73,0.00,CLR,,0.00,WeatherDisplay:10.37,2013-01-29 16:40:00,
2013-01-29 10:45:00,83.2,72.8,29.99,East,79,10.0,10.0,71,0.00,CLR,,0.00,WeatherDisplay:10.37,2013-01-29 16:45:00,
2013-01-29 10:50:00,82.8,72.8,29.99,ESE,121,9.2,9.2,72,0.00,CLR,,0.00,WeatherDisplay:10.37,2013-01-29 16:50:00,
2013-01-29 10:55:00,82.8,72.8,29.99,ENE,59,9.2,9.2,72,0.00,CLR,,0.00,WeatherDisplay:10.37,2013-01-29 16:55:00,
2013-01-29 11:00:00,83.4,72.2,29.99,NNE,27,11.5,11.5,69,0.00,CLR,,0.00,WeatherDisplay:10.37,2013-01-29 17:00:00,
2013-01-29 11:05:00,83.9,72.6,29.99,NE,54,9.2,9.2,69,0.00,CLR,,0.00,WeatherDisplay:10.37,2013-01-29 17:05:00,
2013-01-29 11:07:00,84.0,72.3,29.98,NE,38,10.4,10.4,68,0.00,CLR,,0.00,WeatherDisplay:10.37,2013-01-29 17:07:00,
2013-01-29 11:10:00,84.0,72.3,29.98,NE,38,10.4,10.4,68,0.00,CLR,,0.00,WeatherDisplay:10.37,2013-01-29 17:10:00,
2013-01-29 11:15:00,84.0,72.3,29.98,NE,38,10.4,10.4,68,0.00,CLR,,0.00,WeatherDisplay:10.37,2013-01-29 17:15:00,
2013-01-29 11:26:00,84.0,72.3,29.98,NE,38,10.4,10.4,68,0.00,CLR,,0.00,WeatherDisplay:10.37,2013-01-29 17:26:00,
2013-01-29 11:32:00,84.0,72.3,29.98,NE,38,10.4,10.4,68,0.00,CLR,,0.00,WeatherDisplay:10.37,2013-01-29 17:32:00,
2013-01-29 11:38:00,83.0,71.8,29.97,NE,53,10.4,10.4,69,0.00,CLR,,0.00,WeatherDisplay:10.37,2013-01-29 17:38:00,
2013-01-29 11:43:00,83.0,72.2,29.96,ENE,77,10.4,10.4,70,0.00,CLR,,0.00,WeatherDisplay:10.37,2013-01-29 17:43:00,
2013-01-29 11:48:00,83.1,71.0,29.96,NE,51,13.8,13.8,67,0.00,CLR,,0.00,WeatherDisplay:10.37,2013-01-29 17:48:00,
2013-01-29 11:53:00,83.2,72.0,29.96,NE,44,13.8,13.8,69,0.00,CLR,,0.00,WeatherDisplay:10.37,2013-01-29 17:53:00,
2013-01-29 11:58:00,83.7,72.4,29.96,NW,324,13.8,13.8,69,0.00,CLR,,0.00,WeatherDisplay:10.37,2013-01-29 17:58:00,
2013-01-29 12:04:00,84.2,72.9,29.95,ENE,71,13.8,13.8,69,0.00,CLR,,0.00,WeatherDisplay:10.37,2013-01-29 18:04:00,
2013-01-29 12:09:00,84.1,72.8,29.95,ENE,59,10.4,10.4,69,0.00,CLR,,0.00,WeatherDisplay:10.37,2013-01-29 18:09:00,
2013-01-29 12:14:00,83.3,72.9,29.95,NE,41,8.1,8.1,71,0.00,CLR,,0.00,WeatherDisplay:10.37,2013-01-29 18:14:00,
2013-01-29 12:19:00,83.7,73.3,29.95,East,83,11.5,11.5,71,0.00,CLR,,0.00,WeatherDisplay:10.37,2013-01-29 18:19:00,
2013-01-29 12:24:00,84.3,73.4,29.95,NNW,334,11.5,11.5,70,0.00,CLR,,0.00,WeatherDisplay:10.37,2013-01-29 18:24:00,
2013-01-29 12:29:00,83.9,73.1,29.95,NE,37,14.0,14.0,70,0.00,CLR,,0.00,WeatherDisplay:10.37,2013-01-29 18:29:00,
2013-01-29 12:34:00,83.7,73.7,29.95,East,82,9.2,9.2,72,0.00,CLR,,0.00,WeatherDisplay:10.37,2013-01-29 18:34:00,
2013-01-29 12:39:00,83.4,73.8,29.94,NE,47,12.7,12.7,73,0.00,CLR,,0.00,WeatherDisplay:10.37,2013-01-29 18:39:00,
2013-01-29 12:44:00,83.5,74.3,29.94,NE,56,13.8,13.8,74,0.00,CLR,,0.00,WeatherDisplay:10.37,2013-01-29 18:44:00,
2013-01-29 12:49:00,83.0,73.9,29.94,NE,39,12.7,12.7,74,0.00,CLR,,0.00,WeatherDisplay:10.37,2013-01-29 18:49:00,
2013-01-29 12:54:00,82.7,74.0,29.93,ENE,58,11.5,11.5,75,0.00,CLR,,0.00,WeatherDisplay:10.37,2013-01-29 18:54:00,
2013-01-29 12:59:00,82.8,74.5,29.93,NE,45,11.5,11.5,76,0.00,CLR,,0.00,WeatherDisplay:10.37,2013-01-29 18:59:00,
2013-01-29 13:04:00,83.2,74.8,29.93,SE,124,9.2,9.2,76,0.00,CLR,,0.00,WeatherDisplay:10.37,2013-01-29 19:04:00,
2013-01-29 13:09:00,83.7,74.9,29.93,NE,44,16.1,16.1,75,0.00,CLR,,0.00,WeatherDisplay:10.37,2013-01-29 19:09:00,
2013-01-29 13:14:00,83.3,74.5,29.92,ENE,68,12.7,12.7,75,0.00,CLR,,0.00,WeatherDisplay:10.37,2013-01-29 19:14:00,
2013-01-29 13:19:00,83.3,73.7,29.92,NE,52,13.8,13.8,73,0.00,CLR,,0.00,WeatherDisplay:10.37,2013-01-29 19:19:00,
2013-01-29 13:24:00,83.3,74.1,29.92,NE,52,9.2,9.2,74,0.00,CLR,,0.00,WeatherDisplay:10.37,2013-01-29 19:24:00,
2013-01-29 13:29:00,83.4,73.8,29.91,ENE,72,12.7,12.7,73,0.00,CLR,,0.00,WeatherDisplay:10.37,2013-01-29 19:29:00,
2013-01-29 13:34:00,83.4,74.2,29.91,NNE,17,11.5,11.5,74,0.00,CLR,,0.00,WeatherDisplay:10.37,2013-01-29 19:34:00,
2013-01-29 13:39:00,83.8,74.2,29.90,ENE,63,11.0,11.0,73,0.00,CLR,,0.00,WeatherDisplay:10.37,2013-01-29 19:39:00,
2013-01-29 13:44:00,83.9,74.3,29.91,NE,52,12.7,12.7,73,0.00,CLR,,0.00,WeatherDisplay:10.37,2013-01-29 19:44:00,
2013-01-29 13:49:00,83.6,74.0,29.90,NNE,19,17.3,17.3,73,0.00,CLR,,0.00,WeatherDisplay:10.37,2013-01-29 19:49:00,
2013-01-29 13:54:00,83.4,74.2,29.90,East,98,11.5,11.5,74,0.00,CLR,,0.00,WeatherDisplay:10.37,2013-01-29 19:54:00,
2013-01-29 13:59:00,83.4,74.6,29.90,ENE,63,11.5,11.5,75,0.00,CLR,,0.00,WeatherDisplay:10.37,2013-01-29 19:59:00,
2013-01-29 14:04:00,83.2,74.4,29.90,ENE,59,11.5,11.5,75,0.00,CLR,,0.00,WeatherDisplay:10.37,2013-01-29 20:04:00,
2013-01-29 14:09:00,83.4,74.6,29.90,ENE,77,15.0,15.0,75,0.00,CLR,,0.00,WeatherDisplay:10.37,2013-01-29 20:09:00,
2013-01-29 14:14:00,83.3,74.1,29.90,ENE,72,16.0,16.0,74,0.00,CLR,,0.00,WeatherDisplay:10.37,2013-01-29 20:14:00,
2013-01-29 14:19:00,83.2,74.0,29.89,NNE,32,13.8,13.8,74,0.00,CLR,,0.00,WeatherDisplay:10.37,2013-01-29 20:19:00,
2013-01-29 14:24:00,83.3,74.5,29.89,ENE,68,11.5,11.5,75,0.00,CLR,,0.00,WeatherDisplay:10.37,2013-01-29 20:24:00,
2013-01-29 14:29:00,83.4,74.6,29.90,NE,52,15.0,15.0,75,0.00,CLR,,0.00,WeatherDisplay:10.37,2013-01-29 20:29:00,
2013-01-29 14:34:00,83.6,75.2,29.89,East,98,11.5,11.5,76,0.00,CLR,,0.00,WeatherDisplay:10.37,2013-01-29 20:34:00,
2013-01-29 14:39:00,83.4,74.6,29.89,ENE,59,17.3,17.3,75,0.00,CLR,,0.00,WeatherDisplay:10.37,2013-01-29 20:39:00,
2013-01-29 14:44:00,83.6,75.2,29.89,NE,45,11.5,11.5,76,0.00,CLR,,0.00,WeatherDisplay:10.37,2013-01-29 20:44:00,
2013-01-29 14:49:00,83.4,74.6,29.89,NNE,18,10.4,10.4,75,0.00,CLR,,0.00,WeatherDisplay:10.37,2013-01-29 20:49:00,
2013-01-29 14:54:00,83.5,74.7,29.89,NE,49,11.5,11.5,75,0.00,CLR,,0.00,WeatherDisplay:10.37,2013-01-29 20:54:00,
2013-01-29 14:59:00,83.4,75.0,29.89,NE,49,11.5,11.5,76,0.00,CLR,,0.00,WeatherDisplay:10.37,2013-01-29 20:59:00,
2013-01-29 15:04:00,83.6,74.8,29.88,NE,49,10.4,10.4,75,0.00,CLR,,0.00,WeatherDisplay:10.37,2013-01-29 21:04:00,
2013-01-29 15:09:00,83.6,75.2,29.88,ENE,70,6.9,6.9,76,0.00,CLR,,0.00,WeatherDisplay:10.37,2013-01-29 21:09:00,
2013-01-29 15:14:00,83.5,75.1,29.89,East,87,18.0,18.0,76,0.00,CLR,,0.00,WeatherDisplay:10.37,2013-01-29 21:14:00,
2013-01-29 15:19:00,83.2,75.2,29.88,ENE,63,16.0,16.0,77,0.00,CLR,,0.00,WeatherDisplay:10.37,2013-01-29 21:19:00,
2013-01-29 15:24:00,83.3,75.3,29.89,NE,49,11.5,11.5,77,0.00,CLR,,0.00,WeatherDisplay:10.37,2013-01-29 21:24:00,
2013-01-29 15:29:00,83.0,75.0,29.89,NE,56,15.0,15.0,77,0.00,CLR,,0.00,WeatherDisplay:10.37,2013-01-29 21:29:00,
2013-01-29 15:34:00,82.8,75.6,29.89,ENE,66,18.4,18.4,79,0.00,CLR,,0.00,WeatherDisplay:10.37,2013-01-29 21:34:00,
2013-01-29 15:39:00,82.4,75.6,29.89,NE,49,15.0,15.0,80,0.00,CLR,,0.00,WeatherDisplay:10.37,2013-01-29 21:39:00,
2013-01-29 15:45:00,82.4,76.0,29.88,North,11,12.7,12.7,81,0.00,CLR,,0.00,WeatherDisplay:10.37,2013-01-29 21:45:00,
2013-01-29 15:50:00,82.4,75.6,29.89,ENE,58,13.8,13.8,80,0.00,CLR,,0.00,WeatherDisplay:10.37,2013-01-29 21:50:00,
2013-01-29 15:55:00,82.2,75.4,29.88,NE,39,11.5,11.5,80,0.00,CLR,,0.00,WeatherDisplay:10.37,2013-01-29 21:55:00,
2013-01-29 16:00:00,82.4,75.2,29.88,ENE,63,16.0,16.0,79,0.00,CLR,,0.00,WeatherDisplay:10.37,2013-01-29 22:00:00,
2013-01-29 16:05:00,82.5,74.6,29.88,ESE,104,13.8,13.8,77,0.00,CLR,,0.00,WeatherDisplay:10.37,2013-01-29 22:05:00,
2013-01-29 16:10:00,82.6,74.3,29.88,East,98,15.0,15.0,76,0.00,CLR,,0.00,WeatherDisplay:10.37,2013-01-29 22:10:00,
2013-01-29 16:15:00,82.5,74.2,29.88,NE,54,15.0,15.0,76,0.00,CLR,,0.00,WeatherDisplay:10.37,2013-01-29 22:15:00,
2013-01-29 16:20:00,82.5,74.6,29.89,ENE,78,8.0,20.0,77,0.00,CLR,,0.00,WeatherDisplay:10.37,2013-01-29 22:20:00,
2013-01-29 16:25:00,82.5,74.5,29.89,ENE,71,10.0,21.0,77,0.00,CLR,,0.00,WeatherDisplay:10.37,2013-01-29 22:25:00,
2013-01-29 16:30:00,82.3,74.4,29.89,ENE,68,13.0,22.0,77,0.00,CLR,,0.00,WeatherDisplay:10.37,2013-01-29 22:30:00,
2013-01-29 16:35:00,82.3,75.1,29.88,ENE,72,7.0,16.0,79,0.00,CLR,,0.00,WeatherDisplay:10.37,2013-01-29 22:35:00,
2013-01-29 16:40:00,82.0,75.2,29.89,ENE,64,9.0,20.0,80,0.00,CLR,,0.00,WeatherDisplay:10.37,2013-01-29 22:40:00,
2013-01-29 16:45:00,81.9,75.1,29.89,ENE,59,9.0,18.0,80,0.00,CLR,,0.00,WeatherDisplay:10.37,2013-01-29 22:45:00,
2013-01-29 16:50:00,81.9,75.1,29.89,ENE,68,16.1,16.1,80,0.00,CLR,,0.00,WeatherDisplay:10.37,2013-01-29 22:50:00,
2013-01-29 16:55:00,82.0,74.8,29.89,ENE,70,16.0,16.0,79,0.00,CLR,,0.00,WeatherDisplay:10.37,2013-01-29 22:55:00,
2013-01-29 17:00:00,81.8,75.0,29.89,ENE,59,15.0,15.0,80,0.00,CLR,,0.00,WeatherDisplay:10.37,2013-01-29 23:00:00,
2013-01-29 17:05:00,81.7,74.9,29.89,ENE,62,12.0,21.0,80,0.00,CLR,,0.00,WeatherDisplay:10.37,2013-01-29 23:05:00,
2013-01-29 17:10:00,81.4,74.6,29.89,East,82,23.0,23.0,80,0.00,CLR,,0.00,WeatherDisplay:10.37,2013-01-29 23:10:00,
2013-01-29 17:15:00,81.2,74.8,29.89,ENE,64,10.0,23.0,81,0.00,CLR,,0.00,WeatherDisplay:10.37,2013-01-29 23:15:00,
2013-01-29 17:20:00,81.1,75.1,29.89,ENE,74,11.5,11.5,82,0.00,CLR,,0.00,WeatherDisplay:10.37,2013-01-29 23:20:00,
2013-01-29 17:25:00,80.8,75.2,29.89,ENE,65,11.5,11.5,83,0.00,CLR,,0.00,WeatherDisplay:10.37,2013-01-29 23:25:00,
2013-01-29 17:30:00,80.5,75.2,29.88,ENE,61,13.8,13.8,84,0.00,CLR,,0.00,WeatherDisplay:10.37,2013-01-29 23:30:00,
2013-01-29 17:35:00,80.2,75.3,29.88,NE,56,9.0,14.0,85,0.00,CLR,,0.00,WeatherDisplay:10.37,2013-01-29 23:35:00,
2013-01-29 17:40:00,80.1,74.8,29.88,ENE,60,3.0,17.0,84,0.00,CLR,,0.00,WeatherDisplay:10.37,2013-01-29 23:40:00,
2013-01-29 17:45:00,80.0,74.7,29.88,East,84,16.1,16.1,84,0.00,CLR,,0.00,WeatherDisplay:10.37,2013-01-29 23:45:00,
2013-01-29 17:50:00,79.9,74.6,29.88,ENE,66,7.0,13.0,84,0.00,CLR,,0.00,WeatherDisplay:10.37,2013-01-29 23:50:00,
2013-01-29 17:55:00,80.0,74.7,29.89,ENE,70,11.5,11.5,84,0.00,CLR,,0.00,WeatherDisplay:10.37,2013-01-29 23:55:00,
2013-01-29 18:00:00,79.9,75.0,29.89,NE,54,5.0,8.0,85,0.00,CLR,,0.00,WeatherDisplay:10.37,2013-01-30 00:00:00,
2013-01-29 18:05:00,79.9,75.3,29.89,NE,47,10.4,10.4,86,0.00,CLR,,0.00,WeatherDisplay:10.37,2013-01-30 00:05:00,
2013-01-29 18:10:00,79.9,75.3,29.89,ENE,57,7.0,15.0,86,0.00,CLR,,0.00,WeatherDisplay:10.37,2013-01-30 00:10:00,
2013-01-29 18:15:00,79.8,75.6,29.89,NE,53,11.5,11.5,87,0.00,CLR,,0.00,WeatherDisplay:10.37,2013-01-30 00:15:00,
2013-01-29 18:20:00,79.8,75.6,29.89,ENE,61,10.4,10.4,87,0.00,CLR,,0.00,WeatherDisplay:10.37,2013-01-30 00:20:00,
2013-01-29 18:25:00,79.8,75.9,29.89,ENE,65,17.3,17.3,88,0.00,CLR,,0.00,WeatherDisplay:10.37,2013-01-30 00:25:00,
2013-01-29 18:30:00,79.7,75.8,29.89,ENE,76,16.1,16.1,88,0.00,CLR,,0.00,WeatherDisplay:10.37,2013-01-30 00:30:00,
2013-01-29 18:35:00,79.7,75.5,29.89,ENE,63,17.3,17.3,87,0.00,CLR,,0.00,WeatherDisplay:10.37,2013-01-30 00:35:00,
2013-01-29 18:40:00,79.7,75.1,29.89,SW,236,13.8,13.8,86,0.00,CLR,,0.00,WeatherDisplay:10.37,2013-01-30 00:40:00,
2013-01-29 18:45:00,79.7,75.1,29.90,ENE,77,15.0,15.0,86,0.00,CLR,,0.00,WeatherDisplay:10.37,2013-01-30 00:45:00,
2013-01-29 18:50:00,79.7,75.1,29.90,NE,56,13.8,13.8,86,0.00,CLR,,0.00,WeatherDisplay:10.37,2013-01-30 00:50:00,
2013-01-29 18:55:00,79.8,75.6,29.90,ENE,77,12.7,12.7,87,0.00,CLR,,0.00,WeatherDisplay:10.37,2013-01-30 00:55:00,
2013-01-29 19:00:00,79.8,75.6,29.90,NE,41,11.5,11.5,87,0.00,CLR,,0.00,WeatherDisplay:10.37,2013-01-30 01:00:00,
2013-01-29 19:05:00,79.8,75.6,29.90,East,87,14.0,14.0,87,0.00,CLR,,0.00,WeatherDisplay:10.37,2013-01-30 01:05:00,
2013-01-29 19:10:00,79.8,75.6,29.90,NE,45,11.5,11.5,87,0.00,CLR,,0.00,WeatherDisplay:10.37,2013-01-30 01:10:00,
2013-01-29 19:15:00,79.8,75.9,29.90,ENE,67,13.0,13.0,88,0.00,CLR,,0.00,WeatherDisplay:10.37,2013-01-30 01:15:00,
2013-01-29 19:20:00,79.9,76.0,29.90,NE,52,11.5,11.5,88,0.00,CLR,,0.00,WeatherDisplay:10.37,2013-01-30 01:20:00,
2013-01-29 19:25:00,79.9,76.0,29.91,ENE,61,12.7,12.7,88,0.00,CLR,,0.00,WeatherDisplay:10.37,2013-01-30 01:25:00,
2013-01-29 19:30:00,79.9,76.0,29.91,ENE,65,15.0,15.0,88,0.00,CLR,,0.00,WeatherDisplay:10.37,2013-01-30 01:30:00,
2013-01-29 19:35:00,79.9,76.0,29.91,ENE,72,13.8,13.8,88,0.00,CLR,,0.00,WeatherDisplay:10.37,2013-01-30 01:35:00,
2013-01-29 19:40:00,79.9,76.0,29.91,East,84,13.8,13.8,88,0.00,CLR,,0.00,WeatherDisplay:10.37,2013-01-30 01:40:00,
2013-01-29 19:45:00,79.9,76.4,29.91,ENE,63,11.5,11.5,89,0.00,CLR,,0.00,WeatherDisplay:10.37,2013-01-30 01:45:00,
2013-01-29 19:50:00,79.9,76.0,29.91,ENE,67,13.0,13.0,88,0.00,CLR,,0.00,WeatherDisplay:10.37,2013-01-30 01:50:00,
2013-01-29 19:55:00,79.9,76.0,29.91,ENE,75,17.3,17.3,88,0.00,CLR,,0.00,WeatherDisplay:10.37,2013-01-30 01:55:00,
2013-01-29 20:00:00,79.9,76.0,29.91,ESE,121,16.1,16.1,88,0.00,CLR,,0.00,WeatherDisplay:10.37,2013-01-30 02:00:00,
2013-01-29 20:05:00,79.9,76.0,29.91,East,84,13.0,13.0,88,0.00,CLR,,0.00,WeatherDisplay:10.37,2013-01-30 02:05:00,
2013-01-29 20:10:00,79.9,76.0,29.91,NE,52,16.1,16.1,88,0.00,CLR,,0.00,WeatherDisplay:10.37,2013-01-30 02:10:00,
2013-01-29 20:15:00,79.9,76.0,29.91,NE,55,15.0,15.0,88,0.00,CLR,,0.00,WeatherDisplay:10.37,2013-01-30 02:15:00,
2013-01-29 20:20:00,79.9,75.7,29.91,East,79,18.4,18.4,87,0.00,CLR,,0.00,WeatherDisplay:10.37,2013-01-30 02:20:00,
2013-01-29 20:25:00,79.9,76.0,29.92,ENE,75,10.4,10.4,88,0.00,CLR,,0.00,WeatherDisplay:10.37,2013-01-30 02:25:00,
2013-01-29 20:30:00,79.9,76.0,29.92,NE,53,12.7,12.7,88,0.00,CLR,,0.00,WeatherDisplay:10.37,2013-01-30 02:30:00,
2013-01-29 20:35:00,80.0,76.1,29.92,ENE,70,10.4,10.4,88,0.00,CLR,,0.00,WeatherDisplay:10.37,2013-01-30 02:35:00,
2013-01-29 20:40:00,80.0,76.1,29.92,East,96,17.3,17.3,88,0.00,CLR,,0.00,WeatherDisplay:10.37,2013-01-30 02:40:00,
2013-01-29 20:45:00,80.0,76.1,29.92,NE,54,15.0,15.0,88,0.00,CLR,,0.00,WeatherDisplay:10.37,2013-01-30 02:45:00,
2013-01-29 20:50:00,80.0,76.1,29.92,ENE,74,11.5,11.5,88,0.00,CLR,,0.00,WeatherDisplay:10.37,2013-01-30 02:50:00,
2013-01-29 20:55:00,80.0,76.1,29.92,NE,50,11.5,11.5,88,0.00,CLR,,0.00,WeatherDisplay:10.37,2013-01-30 02:55:00,
2013-01-29 21:00:00,80.1,76.2,29.92,NE,56,15.0,15.0,88,0.00,CLR,,0.00,WeatherDisplay:10.37,2013-01-30 03:00:00,
2013-01-29 21:05:00,80.1,76.2,29.92,East,94,15.0,15.0,88,0.00,CLR,,0.00,WeatherDisplay:10.37,2013-01-30 03:05:00,
2013-01-29 21:10:00,80.0,76.1,29.92,ENE,63,11.5,11.5,88,0.00,CLR,,0.00,WeatherDisplay:10.37,2013-01-30 03:10:00,
2013-01-29 21:15:00,80.0,76.1,29.92,ENE,66,11.5,11.5,88,0.00,CLR,,0.00,WeatherDisplay:10.37,2013-01-30 03:15:00,
2013-01-29 21:20:00,80.0,76.5,29.93,ENE,61,15.0,15.0,89,0.00,CLR,,0.00,WeatherDisplay:10.37,2013-01-30 03:20:00,
2013-01-29 21:25:00,80.0,76.5,29.93,NE,51,12.0,12.0,89,0.00,CLR,,0.00,WeatherDisplay:10.37,2013-01-30 03:25:00,
2013-01-29 21:30:00,80.0,76.5,29.93,ENE,62,8.1,8.1,89,0.00,CLR,,0.00,WeatherDisplay:10.37,2013-01-30 03:30:00,
2013-01-29 21:35:00,80.0,76.5,29.93,East,84,12.7,12.7,89,0.00,CLR,,0.00,WeatherDisplay:10.37,2013-01-30 03:35:00,
2013-01-29 21:40:00,79.9,76.4,29.93,ENE,74,10.4,10.4,89,0.00,CLR,,0.00,WeatherDisplay:10.37,2013-01-30 03:40:00,
2013-01-29 21:45:00,79.9,76.4,29.93,ENE,69,12.7,12.7,89,0.00,CLR,,0.00,WeatherDisplay:10.37,2013-01-30 03:45:00,
2013-01-29 21:50:00,79.8,76.3,29.93,ENE,74,19.6,19.6,89,0.00,CLR,,0.00,WeatherDisplay:10.37,2013-01-30 03:50:00,
2013-01-29 21:56:00,79.7,76.2,29.93,ENE,76,17.3,17.3,89,0.00,CLR,,0.00,WeatherDisplay:10.37,2013-01-30 03:56:00,
2013-01-29 22:01:00,79.7,76.2,29.93,ENE,69,12.0,12.0,89,0.00,CLR,,0.00,WeatherDisplay:10.37,2013-01-30 04:01:00,
2013-01-29 22:06:00,79.7,76.2,29.93,ENE,71,15.0,15.0,89,0.00,CLR,,0.00,WeatherDisplay:10.37,2013-01-30 04:06:00,
2013-01-29 22:11:00,79.7,76.2,29.93,ENE,61,12.7,12.7,89,0.00,CLR,,0.00,WeatherDisplay:10.37,2013-01-30 04:11:00,
2013-01-29 22:16:00,79.6,76.1,29.93,East,89,17.3,17.3,89,0.00,CLR,,0.00,WeatherDisplay:10.37,2013-01-30 04:16:00,
2013-01-29 22:21:00,79.6,76.4,29.93,ENE,72,13.8,13.8,90,0.00,CLR,,0.00,WeatherDisplay:10.37,2013-01-30 04:21:00,
2013-01-29 22:26:00,79.5,76.0,29.93,ENE,62,12.7,12.7,89,0.00,CLR,,0.00,WeatherDisplay:10.37,2013-01-30 04:26:00,
2013-01-29 22:31:00,79.5,76.3,29.93,East,83,12.7,12.7,90,0.00,CLR,,0.00,WeatherDisplay:10.37,2013-01-30 04:31:00,
2013-01-29 22:36:00,79.4,76.2,29.93,NE,51,16.0,16.0,90,0.00,CLR,,0.00,WeatherDisplay:10.37,2013-01-30 04:36:00,
2013-01-29 22:41:00,79.4,76.2,29.93,NE,49,18.4,18.4,90,0.00,CLR,,0.00,WeatherDisplay:10.37,2013-01-30 04:41:00,
2013-01-29 22:46:00,79.4,76.2,29.93,SSE,165,17.3,17.3,90,0.00,CLR,,0.00,WeatherDisplay:10.37,2013-01-30 04:46:00,
2013-01-29 22:51:00,79.4,76.2,29.92,East,83,16.0,16.0,90,0.00,CLR,,0.00,WeatherDisplay:10.37,2013-01-30 04:51:00,
2013-01-29 22:56:00,79.4,76.2,29.92,East,97,12.7,12.7,90,0.00,CLR,,0.00,WeatherDisplay:10.37,2013-01-30 04:56:00,
2013-01-29 23:00:00,79.3,76.1,29.92,East,85,16.1,16.1,90,0.00,CLR,,0.00,WeatherDisplay:10.37,2013-01-30 05:00:00,
2013-01-29 23:03:00,79.3,76.4,29.92,ESE,108,16.1,16.1,91,0.00,CLR,,0.00,WeatherDisplay:10.37,2013-01-30 05:03:00,
2013-01-29 23:08:00,79.3,76.4,29.92,ENE,64,16.1,16.1,91,0.00,CLR,,0.00,WeatherDisplay:10.37,2013-01-30 05:08:00,
2013-01-29 23:13:00,79.3,76.4,29.91,ENE,70,20.7,20.7,91,0.00,CLR,,0.00,WeatherDisplay:10.37,2013-01-30 05:13:00,
2013-01-29 23:18:00,79.2,76.3,29.91,NE,49,12.7,12.7,91,0.00,CLR,,0.00,WeatherDisplay:10.37,2013-01-30 05:18:00,
2013-01-29 23:23:00,79.2,76.0,29.91,NE,42,19.6,19.6,90,0.00,CLR,,0.00,WeatherDisplay:10.37,2013-01-30 05:23:00,
2013-01-29 23:28:00,79.3,76.1,29.91,ENE,64,17.3,17.3,90,0.00,CLR,,0.00,WeatherDisplay:10.37,2013-01-30 05:28:00,
2013-01-29 23:33:00,79.3,76.1,29.91,NNE,21,14.0,14.0,90,0.00,CLR,,0.00,WeatherDisplay:10.37,2013-01-30 05:33:00,
2013-01-29 23:38:00,79.3,76.1,29.91,NE,47,12.7,12.7,90,0.00,CLR,,0.00,WeatherDisplay:10.37,2013-01-30 05:38:00,
2013-01-29 23:43:00,79.3,76.1,29.90,NE,49,13.8,13.8,90,0.00,CLR,,0.00,WeatherDisplay:10.37,2013-01-30 05:43:00,
2013-01-29 23:48:00,79.3,76.1,29.90,East,79,17.3,17.3,90,0.00,CLR,,0.00,WeatherDisplay:10.37,2013-01-30 05:48:00,
2013-01-29 23:53:00,79.3,76.1,29.90,NE,49,16.1,16.1,90,0.00,CLR,,0.00,WeatherDisplay:10.37,2013-01-30 05:53:00,
2013-01-29 23:58:00,79.3,76.1,29.90,ENE,65,12.7,12.7,90,0.00,CLR,,0.00,WeatherDisplay:10.37,2013-01-30 05:58:00,